TimeMDT,TemperatureF,Dew PointF,Humidity,Sea Level PressureIn,VisibilityMPH,Wind Direction,Wind SpeedMPH,Gust SpeedMPH,PrecipitationIn,Events,Conditions,WindDirDegrees,DateUTC
12:51 AM,64.9,50.0,58,29.96,10.0,Calm,Calm,-,N/A,,Clear,0,2013-07-10 06:51:00
1:51 AM,63.0,50.0,63,29.96,10.0,Calm,Calm,-,N/A,,Clear,0,2013-07-10 07:51:00
2:51 AM,59.0,48.0,67,29.96,10.0,Calm,Calm,-,N/A,,Clear,0,2013-07-10 08:51:00
3:51 AM,57.9,48.0,70,29.95,10.0,Calm,Calm,-,N/A,,Clear,0,2013-07-10 09:51:00
4:51 AM,61.0,46.0,58,29.94,10.0,Calm,Calm,-,N/A,,Clear,0,2013-07-10 10:51:00
5:51 AM,55.9,46.9,72,29.96,10.0,Calm,Calm,-,N/A,,Clear,0,2013-07-10 11:51:00
6:51 AM,54.0,48.0,80,29.98,10.0,Calm,Calm,-,N/A,,Clear,0,2013-07-10 12:51:00
7:51 AM,62.1,48.9,62,29.97,10.0,Calm,Calm,-,N/A,,Clear,0,2013-07-10 13:51:00
8:51 AM,69.1,46.0,44,29.98,10.0,North,4.6,-,N/A,,Clear,350,2013-07-10 14:51:00
9:51 AM,75.0,45.0,34,29.98,10.0,Variable,3.5,-,N/A,,Clear,0,2013-07-10 15:51:00
10:51 AM,79.0,48.0,34,29.96,10.0,Variable,3.5,-,N/A,,Clear,0,2013-07-10 16:51:00
11:51 AM,84.0,46.9,27,29.94,10.0,Calm,Calm,-,N/A,,Clear,0,2013-07-10 17:51:00
12:51 PM,88.0,46.0,23,29.92,10.0,Calm,Calm,-,N/A,,Clear,0,2013-07-10 18:51:00
1:51 PM,93.0,41.0,16,29.89,10.0,Variable,3.5,-,N/A,,Clear,0,2013-07-10 19:51:00
2:51 PM,95.0,39.9,15,29.86,10.0,Variable,3.5,-,N/A,,Clear,0,2013-07-10 20:51:00
3:51 PM,97.0,28.0,9,29.84,10.0,SW,3.5,-,N/A,,Clear,220,2013-07-10 21:51:00
4:51 PM,97.0,27.0,8,29.81,10.0,SW,8.1,-,N/A,,Clear,230,2013-07-10 22:51:00
5:51 PM,97.0,28.9,9,29.81,10.0,SW,6.9,-,N/A,,Clear,230,2013-07-10 23:51:00
6:51 PM,96.1,17.1,6,29.80,10.0,WSW,3.5,-,N/A,,Clear,240,2013-07-11 00:51:00
7:51 PM,93.0,30.9,11,29.78,10.0,SW,3.5,-,N/A,,Clear,220,2013-07-11 01:51:00
8:51 PM,82.9,43.0,24,29.78,10.0,East,4.6,-,N/A,,Clear,90,2013-07-11 02:51:00
9:51 PM,82.0,30.0,15,29.77,10.0,SSE,6.9,-,N/A,,Clear,160,2013-07-11 03:51:00
10:51 PM,75.0,37.9,26,29.79,9.0,SW,3.5,-,N/A,,Clear,230,2013-07-11 04:51:00
11:51 PM,70.0,46.0,42,29.78,10.0,Calm,Calm,-,N/A,,Clear,0,2013-07-11 05:51:00